Location: Petham
(51.2167°N, 1.0500°E)
Time: 02:44:12
(UTC+00:00)

Daily predictions for brighter satellites

Satellite Brightness Start Highest point End
(mag) Time Altitude Azimuth Time Altitude Azimuth Time Altitude Azimuth
Cosmos 2219 Rocket 4.5 00:03:57 10° W 00:08:21 22° NW 00:12:45 10° NNE
ATLAS CENTAUR R/B 3.8 00:07:30 11° SW 00:13:07 82° SE 00:28:59 10° ENE
Cosmos 1825 3.8 00:13:02 17° SE 00:14:58 25° E 00:18:06 10° NE
Cosmos 1812 Rocket 4.1 00:13:01 10° NNW 00:17:12 47° W 00:19:25 25° SSW
Cosmos 990 Rocket 4.0 00:13:31 10° NNW 00:18:45 81° ENE 00:22:38 18° SSE
Cosmos 1408 3.2 00:19:18 26° SSE 00:20:58 47° E 00:24:32 10° NNE
SL-16 R/B 2.2 00:19:56 19° SSW 00:24:07 82° WNW 00:29:51 10° NNE
Cosmos 1656 Rocket 4.1 00:18:38 10° NNW 00:24:20 64° ENE 00:29:57 10° SE
Cosmos 2221 3.8 00:20:53 10° N 00:24:51 34° ENE 00:28:24 12° SE
Cosmos 405 Rocket 3.7 00:23:36 22° SE 00:25:21 34° E 00:28:44 10° NNE
USA 229 DEB 3.9 00:22:35 22° S 00:26:41 53° ESE 00:33:20 10° NE
USA 229 3.9 00:22:43 22° S 00:26:47 53° ESE 00:33:26 10° NE
Cosmos 2058 4.4 00:24:22 16° SE 00:26:48 28° E 00:30:19 10° NNE
X-37B 2.8 00:28:47 14° ESE 00:28:47 14° ESE 00:29:28 10° ESE
Cosmos 2237 Rocket 3.5 00:22:11 10° WSW 00:27:22 36° NW 00:32:34 10° NNE
Cosmos 1898 Rocket 3.5 00:26:46 10° NNW 00:32:04 84° ENE 00:36:11 17° SSE
Cosmos 1937 Rocket 3.9 00:27:00 10° NNW 00:32:20 65° ENE 00:37:19 12° SE
Cosmos 2369 Rocket 2.2 00:28:44 10° NNW 00:34:29 79° WSW 00:38:58 17° SSE
NOSS 8 (F) 4.3 00:33:59 35° S 00:34:56 52° SE 00:37:51 10° NE
NOSS 3-1 (C) 3.3 00:31:11 19° SW 00:35:15 81° SE 00:41:46 10° NE
ATLAS 3B R/B 4.4 00:30:21 10° W 00:36:20 33° NNW 00:42:33 10° NE
SJ 16-02 2.4 00:34:20 10° NW 00:38:11 30° WSW 00:40:01 22° SW
FALCON 9 DEB 3.4 00:35:24 10° W 00:38:31 60° N 00:41:38 10° E
YAOGAN 11 4.4 00:35:34 18° SSE 00:38:48 69° ENE 00:43:18 10° N
Cosmos 1356 3.4 00:37:29 31° S 00:38:56 71° E 00:42:20 10° NNE
GP-B 4.0 00:35:06 10° NNW 00:39:16 40° W 00:41:51 20° SW
CREW DRAGON DEMO-1 DEB 3.8 00:40:05 24° ESE 00:40:05 24° ESE 00:41:32 10° E
EP 2 4.5 00:44:03 34° SSW 00:45:11 74° SE 00:48:18 10° NE
NOSS 2-3 (E) 3.6 00:42:32 22° SW 00:45:12 80° SE 00:50:16 10° NE
USA 215 3.5 00:39:37 10° ENE 00:46:08 73° NNW 00:52:39 10° WSW
NOSS 3-1 (A) 3.4 00:42:41 22° SSW 00:46:16 61° SE 00:52:34 10° NE
Cosmos 2263 4.2 00:42:26 10° NNW 00:48:10 82° WSW 00:53:06 14° SSE
Cosmos 1825 Rocket 3.7 00:45:41 24° SSW 00:48:19 68° WNW 00:52:46 10° N
ATLAS 5 CENTAUR R/B 3.6 00:48:04 10° SE 00:49:48 13° ESE 00:51:41 10° E
CZ-4 R/B 4.2 00:45:56 10° NNE 00:50:31 55° E 00:53:33 21° S
Cosmos 1932 4.4 00:47:15 10° NW 00:53:29 73° SW 00:59:39 10° SSE
Meteor 2-2 Rocket 4.4 00:49:04 10° NNW 00:55:09 86° ENE 01:00:07 16° SSE
FALCON 9 DEB 3.2 00:52:33 10° WNW 00:55:38 67° N 00:58:43 10° E
CZ-3B R/B 3.4 00:44:04 10° W 00:56:26 63° N 00:59:57 10° E
Cosmos 1606 3.6 00:57:17 10° N 01:01:01 46° ENE 01:04:12 13° SSE
NOSS 8 (H) 4.3 01:00:24 31° SSW 01:01:36 56° SE 01:04:30 10° NE
FALCON 9 DEB 3.3 00:59:18 10° WNW 01:02:25 65° N 01:05:31 10° E
Helios 1A 2.9 01:00:06 21° S 01:02:52 80° WSW 01:07:06 10° NNW
Cosmos 468 Rocket 4.0 01:00:57 21° SSW 01:04:28 89° ESE 01:09:44 10° NNE
FALCON 9 DEB 3.1 01:02:47 10° WNW 01:05:53 69° N 01:08:59 10° E
SL-16 R/B 2.9 01:00:40 10° SSE 01:06:47 65° ENE 01:12:54 10° NNW
Cosmos 372 Rocket 4.2 01:02:05 10° NNW 01:07:20 73° ENE 01:12:36 10° SSE
USA 305 4.4 01:10:32 18° SSE 01:12:04 22° SE 01:15:21 10° E
USA 290 4.3 01:11:15 13° SE 01:13:03 19° ESE 01:15:24 10° ENE
Cosmos 1953 Rocket 3.9 01:10:29 21° SSW 01:13:15 57° WNW 01:17:37 10° N
Lacrosse 4 Rocket 1.9 01:09:29 10° NNW 01:13:33 58° NE 01:17:34 10° SE
CENTAUR R/B 4.5 01:09:38 10° NW 01:16:44 42° NNE 01:24:47 10° E
Cosmos 2098 Rocket 3.4 01:15:08 18° S 01:19:11 74° E 01:23:29 10° NNE
Cosmos 1763 Rocket 3.5 01:15:44 19° SSW 01:19:25 73° WNW 01:24:36 10° NNE
BREEZE-M R/B 4.1 01:18:11 17° SSE 01:19:29 20° SE 01:22:51 10° E
Resurs 1-4 Rocket 2.7 01:14:50 10° NNE 01:20:03 51° E 01:24:23 15° S
Cosmos 1437 Rocket 3.0 01:16:14 10° NNW 01:20:03 54° W 01:22:18 22° SSW
USA 267 4.3 01:19:19 18° SSW 01:22:16 24° SW 01:27:22 10° WNW
Cosmos 1892 4.0 01:21:02 16° SW 01:23:27 30° WNW 01:26:56 10° N
SL-4 R/B 1.7 01:21:09 10° W 01:24:58 82° N 01:28:32 10° E
NOSS 2-3 (D) 4.1 01:22:26 13° WSW 01:26:16 60° NW 01:31:24 10° NE
Cosmos 1943 Rocket 3.7 01:23:23 10° WNW 01:27:04 18° W 01:29:31 14° SW
Cosmos 1842 Rocket 3.7 01:25:51 10° NNW 01:30:09 60° W 01:33:15 18° S
NPP 4.2 01:25:57 10° NNE 01:31:13 51° E 01:35:57 13° S
ADEOS II 3.4 01:26:49 10° NNE 01:31:33 32° E 01:36:13 10° SSE
Lacrosse 5 rocket 2.5 01:30:17 10° NW 01:33:42 40° NNE 01:37:09 10° E
USA 306 4.0 01:32:05 18° S 01:34:18 29° SE 01:38:01 10° E
FALCON 9 DEB 3.3 01:32:00 10° WNW 01:35:17 46° SSW 01:38:33 10° SE
Cosmos 921 Rocket 3.1 01:32:38 18° S 01:35:38 65° ESE 01:39:47 10° NNE
Exosat Rocket 4.0 01:30:27 15° SW 01:35:42 68° WNW 01:40:50 10° NNE
Cosmos 1943 3.2 01:33:25 17° SSW 01:37:53 84° WNW 01:43:36 10° NNE
CZ-2D R/B 2.3 01:33:36 10° NNE 01:38:50 69° ESE 01:43:15 14° S
MOZ.5/SAFIR/RUBIN 5/SL-8 4.3 01:38:05 17° SSW 01:41:28 45° W 01:46:03 10° NNW
IDEFIX/ARIANE 42P 4.4 01:41:32 10° NE 01:45:49 25° E 01:50:03 10° SE
Cosmos 1603 3.8 01:41:52 15° SW 01:46:37 72° WNW 01:52:17 10° NNE
Cosmos 2151 3.5 01:44:56 12° S 01:48:41 54° E 01:52:48 10° NNE
Cosmos 1825 3.4 01:47:48 15° SW 01:50:21 30° WNW 01:53:44 10° N
AQUA 4.2 01:46:09 10° NNE 01:50:53 60° ESE 01:55:17 12° S
Cosmos 1076 Rocket 3.5 01:49:45 16° SSW 01:53:07 81° W 01:57:24 10° N
Cosmos 1437 2.6 01:51:18 10° NNW 01:54:03 51° W 01:55:51 18° S
Cosmos 1242 Rocket 3.4 01:54:26 10° NNW 01:57:42 34° W 02:00:05 16° SSW
Cosmos 540 Rocket 3.7 01:55:00 14° SW 01:59:18 61° WNW 02:04:23 10° NNE
Cosmos 405 Rocket 4.4 01:58:43 11° WSW 02:01:26 22° WNW 02:04:21 10° NNW
Cosmos 2221 3.7 01:58:37 10° NNW 02:02:18 28° W 02:05:13 14° SW
X-37B 1.7 02:01:04 14° SW 02:02:57 24° S 02:05:35 10° SE
Cosmos 2058 4.0 02:00:33 13° SW 02:03:38 32° WNW 02:07:21 10° N
BREEZE-M DEB (TANK) 1.4 02:02:51 10° W 02:05:30 52° S 02:07:45 10° ESE
IRS-1D 4.3 02:00:39 10° NNE 02:05:38 46° E 02:10:29 10° S
Cosmos 841 Rocket 3.7 02:03:07 13° SW 02:07:37 61° WNW 02:12:44 10° NNE
Cosmos 1553 Rocket 4.2 02:02:42 10° N 02:09:04 79° ENE 02:15:17 10° SSE
SL-16 R/B 4.1 02:04:44 10° W 02:09:08 22° NW 02:13:33 10° NNE
NOSS 2-2 (E) 3.1 02:08:02 15° SW 02:10:50 73° SE 02:14:47 10° NE
Cosmos 2292 Rocket 3.4 02:09:59 10° S 02:12:51 47° E 02:15:47 10° NNE
CREW DRAGON DEMO-1 DEB 2.2 02:10:25 10° W 02:12:51 85° N 02:15:18 10° E
FALCON 9 DEB 2.8 02:11:11 10° WNW 02:14:18 69° SSW 02:17:24 10° ESE
Cosmos 1782 3.2 02:11:47 10° N 02:15:47 67° ENE 02:19:46 10° SSE
Cosmos 2369 Rocket 4.0 02:14:30 10° WNW 02:17:35 15° W 02:20:39 10° SW
Cosmos 1271 Rocket 3.7 02:14:01 10° N 02:17:40 47° ENE 02:21:18 10° SSE
USA 229 DEB 4.4 02:11:20 10° WSW 02:17:43 52° NNW 02:24:36 10° NE
USA 229 4.3 02:11:26 10° WSW 02:17:49 52° NNW 02:24:43 10° NE
USA 307 3.3 02:14:12 13° SW 02:17:50 50° SSE 02:21:58 10° ENE
USA 281 3.5 02:12:44 10° SE 02:19:17 77° ENE 02:25:52 10° NNW
Cosmos 2026 Rocket 4.1 02:16:00 10° SSW 02:22:10 72° WNW 02:28:33 10° N
Aureole 3 Rocket 4.0 02:20:39 10° NNW 02:24:06 32° W 02:28:34 10° SSW
NOSS 2-2 (C) 3.1 02:21:26 12° SW 02:24:31 77° SE 02:28:23 10° NE
CZ-4C R/B 3.6 02:22:59 10° SSE 02:26:23 58° ENE 02:29:50 10° N
Helios 1B rocket 2.8 02:22:32 10° N 02:26:33 54° WNW 02:30:26 11° SSW
ERBS 4.2 02:25:01 10° S 02:27:17 18° SE 02:29:34 10° E
USA 215 4.1 02:22:29 10° ENE 02:28:49 54° N 02:35:09 10° WNW
Cosmos 1328 Rocket 4.0 02:25:24 10° N 02:29:45 66° ENE 02:34:06 10° SSE
NOSS 3-2 (A) 4.3 02:22:34 10° NW 02:29:50 77° NE 02:38:15 10° SE
Cosmos 1633 3.5 02:27:25 11° SW 02:30:24 33° WNW 02:33:39 10° N
SL-19 R/B 4.2 02:25:54 10° NNE 02:31:09 74° WNW 02:36:33 10° SSW
FALCON 9 DEB 3.2 02:28:13 10° WNW 02:31:11 42° SSW 02:34:07 10° SE
Cosmos 2298 Rocket 4.2 02:27:21 10° NNW 02:32:33 54° WSW 02:37:44 10° S
ATLAS 5 CENTAUR R/B 1.5 02:29:34 11° SW 02:33:28 87° SE 02:38:05 10° NE
USA 308 3.1 02:29:32 10° SW 02:33:44 60° SSE 02:37:56 10° ENE
SeaSat 1 3.8 02:30:43 10° NE 02:35:11 33° ESE 02:39:38 10° S
Cosmos 1814 Rocket 4.5 02:32:09 10° SW 02:37:14 52° WNW 02:42:17 10° NNE
NOSS 3-1 (A) 4.5 02:31:58 10° W 02:37:28 44° NNW 02:44:01 10° NE
FALCON 9 DEB 3.1 02:35:03 10° WNW 02:38:05 47° SSW 02:41:05 10° SE
FALCON 9 DEB 3.3 02:38:30 10° W 02:41:26 38° SSW 02:44:20 10° SE
ADEOS Rocket 3.5 02:35:14 10° S 02:42:19 55° W 02:48:46 10° NNW
Cosmos 1933 4.0 02:39:08 10° NNW 02:42:56 38° W 02:46:44 10° SSW
Cosmos 1980 Rocket 4.5 02:38:22 10° NNW 02:43:16 30° NE 02:48:09 10° ESE
IRIDIUM 104 4.4 02:38:08 10° N 02:43:20 65° W 02:48:29 10° S
Cosmos 2150 Rocket 4.3 02:39:07 10° NW 02:44:05 46° WSW 02:49:05 10° S
USA 290 3.4 02:44:18 10° SW 02:47:16 33° WNW 02:50:14 10° N
Meteor 1-28 Rocket 3.6 02:47:08 10° S 02:50:47 44° W 02:54:28 10° NNW
SL-16 R/B 3.6 02:45:41 10° SSW 02:50:51 27° W 02:56:03 10° NW
USA 305 2.9 02:47:16 10° WSW 02:51:32 77° SSE 02:55:47 10° ENE
Lacrosse 4 Rocket 2.8 02:48:53 10° WNW 02:51:50 19° WSW 02:54:45 10° SSW
Cosmos 1125 Rocket 3.8 02:46:56 10° NNW 02:52:00 49° WSW 02:57:03 10° S
Cosmos 1151 Rocket 3.1 02:49:12 10° NNW 02:53:25 58° W 02:57:35 10° S
Cosmos 2266 Rocket 4.2 02:51:48 10° S 02:57:51 75° E 03:03:55 10° NNE
